Flag for United Arab Emirates Weather past 2 weeks in Dubai, Dubai, United Arab Emirates

Now
100 °F

Sunny.


Feels Like: 95 °F
Forecast: 78 / 88 °F
Wind: 6 mph from North

Location: Dubai International Airport


UV Index: 7 (High)

Visibility: 10 mi


Pressure: 29.83 "Hg

Humidity: 11%

Dew point: 37 °F

Location of DubaiLocation

Historic Weather in Dubai

°F

Dubai temperature yesterday

Maximum temperature yesterday: 93 °F (at 11:00 AM)
Minimum temperature yesterday: 79 °F (at 6:00 AM)
Average temperature yesterday: 87 °F

Past Weeks' High & Low Weather Summary

 TemperatureHumidityPressure
High100 °F (Apr 15, 11:00 AM)100% (Apr 7, 6:00 AM)30.07 "Hg (Apr 7, 6:00 AM)
Low66 °F (Apr 7, 6:00 AM)6% (Apr 11, 12:00 PM)29.68 "Hg (Apr 17, 5:00 PM)
Average83 °F46%29.88 "Hg
* Reported Apr 4 11:00 AM — Apr 19 11:00 AM, Dubai, Weather by CustomWeather, © 2014

Note: Actual official high and low records may vary slightly from our data, if they occured in-between our weather recording intervals... More about our weather records

Advertising

Historic Weather Conditions — Data for Previous 24 hours

 ConditionsComfort  
Time TempWeatherWind HumidityBarometerVisibility
11:00 AM
Apr 19
100 °FSunny.6 mph11%29.83 "Hg10 mi
10:00 AM97 °FPassing clouds.6 mph16%29.86 "HgN/A
9:00 AM91 °FPassing clouds.3 mph24%29.86 "HgN/A
8:00 AM88 °FPassing clouds.3 mph33%29.86 "HgN/A
7:00 AM81 °FSunny.1 mph48%29.83 "Hg10 mi
6:00 AM79 °FSunny.2 mph58%29.83 "Hg10 mi
5:00 AM79 °FClear.2 mph61%29.80 "Hg10 mi
4:00 AM81 °FPassing clouds.5 mph62%29.80 "HgN/A
3:00 AM82 °FPassing clouds.3 mph58%29.80 "HgN/A
2:00 AM82 °FClear.3 mph58%29.80 "Hg10 mi
1:00 AM84 °FPassing clouds.6 mph55%29.80 "HgN/A
12:00 AM86 °FPassing clouds.6 mph52%29.83 "HgN/A
11:00 PM
Apr 18
86 °FPassing clouds.3 mph49%29.83 "HgN/A
10:00 PM86 °FPassing clouds.3 mph52%29.83 "HgN/A
9:00 PM84 °FClear.2 mph66%29.83 "Hg10 mi
8:00 PM86 °FPassing clouds.7 mph62%29.80 "HgN/A
7:00 PM88 °FClear.9 mph40%29.77 "Hg10 mi
6:00 PM91 °FSunny.9 mph36%29.77 "Hg10 mi
5:00 PM91 °FPassing clouds.10 mph44%29.77 "HgN/A
4:00 PM91 °FPassing clouds.12 mph41%29.77 "HgN/A
3:00 PM91 °FPassing clouds.12 mph46%29.77 "HgN/A
2:00 PM93 °FPassing clouds.9 mph39%29.77 "HgN/A
1:00 PM93 °FPassing clouds.10 mph39%29.80 "HgN/A
12:00 PM91 °FPassing clouds.12 mph44%29.80 "HgN/A
11:00 AM93 °FPassing clouds.6 mph34%29.80 "HgN/A
Weather by CustomWeather, © 2014

See weather overview